[[{"header":{"parameterUnit":"m.s-1","parameterCategory":1,"la1":30.2991,"la2":30.254,"lo1":-89.0895,"lo2":-89.0444,"dy":0.0017,"dx":0.0017,"nx":28,"ny":28,"refTime":"2023-10-02T03:00:00:Z","depth":0,"parameterNumber":2,"parameterNumberName":"U-component_of_WINDS"},"data":[0,0,0,0,0,0,0,0,0,0,0,0,0,0,0,0,0,0,0,0,0,0,0,0,0,0,0,0,0,0,0,0,0,0,0,0,0,0,0,0,0,0,0,0,0,0,0,0,0,0,0,0,0,0,0,0,0,0,-2.8325,-2.8325,0,-2.8302,-2.8302,-2.8301,-2.813,-2.8126,-2.8122,-2.8118,-2.8099,-2.8102,-2.8105,0,0,0,0,0,0,0,0,0,0,0,0,0,-2.8227,-2.8229,-2.8325,-2.8325,-2.8325,-2.8302,-2.8302,-2.8301,-2.8131,-2.8126,-2.8121,-2.8116,-2.8098,-2.8102,-2.8106,0,0,0,0,0,0,0,0,0,0,0,0,0,-2.8243,-2.823,-2.8325,-2.8237,-2.8229,-2.8302,-2.8302,-2.8301,-2.8132,-2.8126,-2.812,-2.8114,-2.8096,-2.8101,-2.8106,-2.8264,0,0,-2.8122,-2.8124,0,0,0,0,0,0,0,0,-2.8243,-2.8247,-2.825,-2.8243,-2.8234,-2.8212,-2.8259,-2.8289,-2.8134,-2.8169,-2.8118,-2.8111,-2.8142,-2.8143,-2.8152,-2.8263,-2.8262,-2.8122,-2.8125,-2.8128,-2.8129,0,0,0,0,0,0,0,-2.8242,-2.8247,-2.8316,-2.825,-2.8241,-2.82,-2.8195,-2.8264,-2.8191,-2.8165,-2.8153,-2.8152,-2.8136,-2.8148,-2.8151,-2.8262,-2.8122,-2.8127,-2.813,-2.8132,-2.8503,-2.8509,0,0,0,0,0,0,-2.8252,-2.8247,-2.8317,-2.8315,-2.8223,-2.8207,-2.8201,-2.8226,-2.819,-2.8178,-2.8158,-2.8144,-2.8142,-2.8145,-2.8149,-2.8334,-2.8127,-2.8132,-2.8135,-2.8496,-2.8504,-2.8512,0,0,0,0,0,0,-2.8251,-2.826,-2.8318,-2.8278,-2.8282,-2.8215,-2.8244,-2.8229,-2.824,-2.8184,-2.8171,-2.8183,-2.8137,-2.8142,-2.8237,-2.8331,-2.8135,-2.8139,-2.8488,-2.8499,-2.8508,-2.8704,0,0,0,0,0,0,-2.8249,-2.826,-2.8319,-2.828,-2.8285,-2.8405,-2.8249,-2.8233,-2.8249,-2.8231,-2.8204,-2.8194,-2.8133,-2.823,-2.8242,-2.8334,-2.8143,-2.8479,-2.8493,-2.8505,-2.8689,-2.8719,-2.8745,0,0,0,0,0,-2.8246,-2.8375,-2.8323,-2.8332,-2.8356,-2.8411,-2.8413,-2.834,-2.8257,-2.8316,-2.828,-2.8194,-2.8318,-2.8241,-2.8253,-2.8349,-2.8473,-2.8489,-2.8504,-2.8676,-2.8713,-2.8745,0,0,0,0,0,0,-2.8428,-2.8369,-2.831,-2.843,-2.8427,-2.8382,-2.8454,-2.8381,-2.8402,-2.8385,-2.8294,-2.8289,-2.8399,-2.8382,-2.8298,-2.85,-2.8381,-2.8399,-2.8508,-2.8543,-2.8571,-2.8574,-2.8147,0,0,0,0,0,-2.8482,-2.853,-2.8475,-2.8587,-2.8588,-2.8522,-2.8543,-2.8486,-2.8479,-2.8478,-2.8448,-2.8446,-2.8484,-2.8512,-2.8544,-2.8684,-2.8677,-2.8755,-2.8784,-2.8807,-2.8826,-2.8902,-2.8937,-2.8562,-2.8562,-2.8561,0,0,-2.8595,-2.8568,-2.8604,-2.8623,-2.8614,-2.8668,-2.8522,-2.8584,-2.8624,-2.8487,-2.8575,-2.8554,-2.8546,-2.8665,-2.8716,-2.8655,-2.8927,-2.8827,-2.8846,-2.8852,-2.8921,-2.8957,-2.8988,-2.8572,-2.857,-2.8569,0,0,-2.8828,-2.8811,-2.8904,-2.8897,-2.8884,-2.8839,-2.8861,-2.8827,-2.8808,-2.8894,-2.8793,-2.8839,-2.8906,-2.8906,-2.8914,-2.9147,-2.9071,-2.916,-2.931,-2.9385,-2.9415,-2.9441,-2.9528,-2.956,-2.9177,-2.9178,-2.9178,0,-2.897,-2.9046,-2.8961,-2.903,-2.9043,-2.892,-2.9015,-2.9012,-2.9012,-2.9024,-2.8954,-2.9037,-2.9023,-2.9141,-2.9198,-2.9208,-2.9233,-2.9164,-2.9417,-2.9442,-2.9465,-2.9547,-2.958,-2.9189,-2.9188,-2.9187,-2.9186,0,-2.9223,-2.9277,-2.9353,-2.9355,-2.9375,-2.9457,-2.9387,-2.9418,-2.9359,-2.9322,-2.9413,-2.9391,-2.9418,-2.944,-2.9384,-2.9552,-2.9515,-2.9433,-2.9312,-2.9514,-2.9589,-2.962,-2.9205,-2.9201,-2.9198,-2.9195,0,0,-2.9573,-2.9526,-2.9556,-2.9556,-2.9533,-2.9574,-2.965,-2.9675,-2.9705,-2.9708,-2.9772,-2.9832,-2.9756,-2.9766,-2.9708,-2.9773,-2.9964,-2.9683,-2.9681,-2.9739,-3.0151,-3.0217,-3.0254,-2.9911,-2.9916,-2.992,-3.0153,0,-2.98,-2.9928,-2.9854,-2.9994,-3.0044,-2.9927,-2.9994,-2.9989,-2.9956,-2.9995,-2.9958,-3.0003,-2.9898,-2.9903,-2.9962,-2.9928,-3.0046,-2.9909,-2.9973,-2.9976,-2.9983,-3.0293,-3.0361,-3.0582,-3.0182,-3.0187,-3.019,0,-3.0083,-3.0098,-3.0243,-3.0211,-3.0229,-3.0291,-3.0308,-3.0346,-3.0337,-3.0309,-3.032,-3.0246,-3.0321,-3.0199,-3.0303,-3.0212,-3.0233,-3.022,-3.0227,-3.0233,-3.0099,-3.0312,-3.065,-3.0686,-3.0235,-3.0232,-3.0228,0,-3.0329,-3.0385,-3.0479,-3.0482,-3.0446,-3.0493,-3.0481,-3.0465,-3.0485,-3.0501,-3.0513,-3.0538,-3.0552,-3.0574,-3.0509,-3.0425,-3.0624,-3.0495,-3.0605,-3.0607,-3.0655,-3.0654,-3.1007,-3.0663,-3.0662,-3.0661,-3.0661,0,-3.0593,-3.0687,-3.0589,-3.0648,-3.075,-3.0664,-3.0769,-3.0743,-3.0731,-3.0784,-3.0684,-3.0736,-3.0646,-3.069,-3.064,-3.0736,-3.0742,-3.0723,-3.071,-3.0735,-3.0738,-3.0751,-3.0735,-3.067,-3.0668,-3.0666,-3.0665,0,-3.0886,-3.0824,-3.092,-3.0878,-3.0869,-3.0948,-3.0912,-3.0966,-3.0925,-3.0994,-3.1005,-3.0943,-3.0989,-3.0926,-3.0966,-3.0932,-3.1065,-3.1026,-3.1068,-3.1059,-3.1174,-3.1166,-3.1551,-3.1598,-3.122,-3.1224,-3.1227,0,-3.1061,-3.113,-3.1096,-3.1124,-3.1117,-3.1163,-3.1183,-3.1101,-3.1126,-3.1122,-3.1177,-3.1214,-3.1241,-3.1321,-3.128,-3.1311,-3.1275,-3.1407,-3.1279,-3.1303,-3.1282,-3.128,-3.1289,-3.1435,-3.144,-3.1443,-3.1446,0,-3.1379,-3.1344,-3.1376,-3.1399,-3.1425,-3.1438,-3.1445,-3.1473,-3.1387,-3.1421,-3.1467,-3.1487,-3.1528,-3.1568,-3.1588,-3.1577,-3.15,-3.1486,-3.1514,-3.1543,-3.1567,-3.156,-3.1145,-3.1479,-3.1476,-3.1473,-3.1472,-3.147,-3.162,-3.1678,-3.1663,-3.1703,-3.1698,-3.1707,-3.1756,-3.1721,-3.1757,-3.1784,-3.1732,-3.1792,-3.1783,-3.1802,-3.1799,-3.1846,-3.1789,-3.1828,-3.1839,-3.1851,-3.1871,-3.1556,-3.1849,-3.1848,-3.1847,-3.1846,-3.1845,0,-3.1936,-3.1921,-3.1958,-3.197,-3.2002,-3.1922,-3.1925,-3.1958,-3.2011,-3.2008,-3.2036,-3.209,-3.2128,-3.209,-3.2122,-3.2167,-3.2133,-3.2179,-3.2177,-3.2176,-3.1918,-3.1893,-3.2206,-3.2206,-3.2206,-3.2206,-3.2206,-3.2206,-3.2105,-3.2199,-3.2163,-3.2255,-3.2238,-3.2295,-3.2305,-3.2313,-3.231,-3.2375,-3.2406,-3.238,-3.2364,-3.2393,-3.2426,-3.2414,-3.2432,-3.2492,-3.2469,-3.2229,-3.2194,-3.216,-3.2136,-3.2496,-3.2496,-3.2723,-3.2725,-3.2726]},{"header":{"parameterUnit":"m.s-1","parameterCategory":1,"la1":30.2991,"la2":30.254,"lo1":-89.0895,"lo2":-89.0444,"dy":0.0017,"dx":0.0017,"nx":28,"ny":28,"refTime":"2023-10-02T03:00:00:Z","depth":0,"parameterNumber":3,"parameterNumberName":"V-component_of_WINDS"},"data":[0,0,0,0,0,0,0,0,0,0,0,0,0,0,0,0,0,0,0,0,0,0,0,0,0,0,0,0,0,0,0,0,0,0,0,0,0,0,0,0,0,0,0,0,0,0,0,0,0,0,0,0,0,0,0,0,0,0,-1.0444,-1.0445,0,-1.0579,-1.058,-1.0582,-1.0657,-1.0657,-1.0657,-1.0657,-1.0796,-1.0799,-1.0803,0,0,0,0,0,0,0,0,0,0,0,0,0,-1.0251,-1.0254,-1.0444,-1.0446,-1.0447,-1.0578,-1.058,-1.0582,-1.0657,-1.0657,-1.0657,-1.0658,-1.0795,-1.0799,-1.0803,0,0,0,0,0,0,0,0,0,0,0,0,0,-1.0355,-1.0255,-1.0444,-1.05,-1.0507,-1.0578,-1.058,-1.0583,-1.0657,-1.0657,-1.0657,-1.0658,-1.0793,-1.0799,-1.0804,-1.0829,0,0,-1.082,-1.0822,0,0,0,0,0,0,0,0,-1.0349,-1.0362,-1.049,-1.0497,-1.0504,-1.0601,-1.0563,-1.0665,-1.0657,-1.06,-1.0657,-1.0658,-1.0731,-1.0741,-1.0766,-1.0836,-1.0842,-1.082,-1.0823,-1.0826,-1.0827,0,0,0,0,0,0,0,-1.0342,-1.0357,-1.0497,-1.0492,-1.05,-1.0519,-1.0534,-1.0583,-1.0662,-1.0605,-1.061,-1.0625,-1.0735,-1.0761,-1.077,-1.0844,-1.082,-1.0825,-1.0828,-1.083,-1.0941,-1.0941,0,0,0,0,0,0,-1.0326,-1.035,-1.0493,-1.0501,-1.0426,-1.0522,-1.0539,-1.057,-1.0662,-1.0676,-1.0625,-1.0628,-1.0752,-1.0764,-1.0775,-1.0811,-1.0825,-1.083,-1.0833,-1.0941,-1.0941,-1.0941,0,0,0,0,0,0,-1.0321,-1.0338,-1.0488,-1.0427,-1.0448,-1.0525,-1.0559,-1.0572,-1.0598,-1.0677,-1.0691,-1.0637,-1.0752,-1.0768,-1.0815,-1.0817,-1.0833,-1.0837,-1.0941,-1.0941,-1.0941,-1.0882,0,0,0,0,0,0,-1.0315,-1.0336,-1.0346,-1.0427,-1.0451,-1.0525,-1.0559,-1.0575,-1.0607,-1.0613,-1.0692,-1.0705,-1.0754,-1.0807,-1.082,-1.0824,-1.0842,-1.0942,-1.0941,-1.0941,-1.0885,-1.088,-1.0876,0,0,0,0,0,-1.0308,-1.0325,-1.0346,-1.0363,-1.0466,-1.0525,-1.0539,-1.0594,-1.0607,-1.0618,-1.0668,-1.0703,-1.0814,-1.0811,-1.0827,-1.0832,-1.0942,-1.0941,-1.0941,-1.0886,-1.0881,-1.0877,0,0,0,0,0,0,-1.0242,-1.0336,-1.0361,-1.0405,-1.0456,-1.0538,-1.0554,-1.0587,-1.0636,-1.0639,-1.0706,-1.0723,-1.0764,-1.0803,-1.0798,-1.0862,-1.0882,-1.0884,-1.0835,-1.083,-1.0826,-1.0816,-1.0846,0,0,0,0,0,-1.0233,-1.0273,-1.0353,-1.0383,-1.0408,-1.0476,-1.0504,-1.0542,-1.0598,-1.0621,-1.0675,-1.0728,-1.0775,-1.0805,-1.0853,-1.089,-1.0909,-1.0902,-1.0898,-1.0894,-1.0896,-1.0918,-1.0916,-1.0939,-1.0939,-1.0939,0,0,-1.0214,-1.027,-1.0292,-1.0372,-1.0416,-1.0456,-1.0494,-1.0535,-1.0566,-1.0627,-1.0675,-1.0716,-1.0781,-1.0823,-1.0845,-1.0857,-1.0893,-1.0893,-1.089,-1.0894,-1.0917,-1.0915,-1.0913,-1.0939,-1.0939,-1.0939,0,0,-1.0199,-1.0246,-1.0276,-1.032,-1.0386,-1.0431,-1.0438,-1.0515,-1.0545,-1.0594,-1.064,-1.0678,-1.0757,-1.0801,-1.0833,-1.0834,-1.0868,-1.0848,-1.0827,-1.0848,-1.0846,-1.0845,-1.0845,-1.0844,-1.0849,-1.0849,-1.0849,0,-1.0167,-1.023,-1.0288,-1.0326,-1.036,-1.0416,-1.0447,-1.0487,-1.0566,-1.0587,-1.06,-1.0701,-1.0748,-1.0801,-1.0801,-1.0826,-1.0836,-1.0839,-1.0842,-1.0841,-1.084,-1.0841,-1.0841,-1.0846,-1.0846,-1.0847,-1.0847,0,-1.0187,-1.0229,-1.0246,-1.032,-1.0355,-1.039,-1.0452,-1.0482,-1.0516,-1.0559,-1.0608,-1.0667,-1.0727,-1.0742,-1.0777,-1.08,-1.0806,-1.0829,-1.085,-1.0834,-1.0836,-1.0837,-1.0842,-1.0843,-1.0844,-1.0845,0,0,-1.0136,-1.0241,-1.0246,-1.028,-1.0357,-1.0391,-1.0427,-1.0486,-1.0509,-1.0562,-1.0594,-1.0659,-1.0681,-1.0718,-1.0758,-1.0776,-1.0772,-1.0797,-1.08,-1.079,-1.0802,-1.0784,-1.0784,-1.0795,-1.0795,-1.0795,-1.0797,0,-1.0133,-1.0201,-1.0254,-1.0302,-1.0342,-1.0396,-1.0428,-1.0478,-1.052,-1.0559,-1.0605,-1.0651,-1.0676,-1.0698,-1.0719,-1.0768,-1.0776,-1.0769,-1.0826,-1.0827,-1.0808,-1.0785,-1.0766,-1.0765,-1.0798,-1.0798,-1.0798,0,-1.0139,-1.0188,-1.024,-1.0313,-1.0331,-1.0359,-1.0416,-1.0454,-1.0512,-1.0541,-1.0581,-1.0622,-1.0663,-1.068,-1.0737,-1.0731,-1.0757,-1.0785,-1.0786,-1.0794,-1.0812,-1.0792,-1.0766,-1.0765,-1.08,-1.08,-1.08,0,-1.0096,-1.0176,-1.0217,-1.0245,-1.033,-1.0348,-1.0385,-1.0443,-1.0475,-1.0525,-1.0546,-1.06,-1.063,-1.0671,-1.0725,-1.0732,-1.0776,-1.0798,-1.0802,-1.08,-1.0809,-1.0808,-1.0786,-1.0825,-1.0825,-1.0825,-1.0825,0,-1.0088,-1.0117,-1.0199,-1.0225,-1.0259,-1.0319,-1.0352,-1.0393,-1.0444,-1.0479,-1.0529,-1.056,-1.0629,-1.0669,-1.0711,-1.0752,-1.0765,-1.079,-1.0801,-1.0786,-1.0782,-1.0804,-1.0805,-1.0825,-1.0825,-1.0825,-1.0825,0,-1.0046,-1.0102,-1.0151,-1.0227,-1.0247,-1.0269,-1.0335,-1.0361,-1.0405,-1.0448,-1.0461,-1.053,-1.0579,-1.0637,-1.0705,-1.0733,-1.077,-1.0787,-1.075,-1.0757,-1.0757,-1.0756,-1.0749,-1.0751,-1.0788,-1.0787,-1.0787,0,-1.0037,-1.0061,-1.014,-1.0166,-1.0201,-1.0243,-1.0275,-1.0334,-1.0366,-1.0433,-1.0451,-1.0504,-1.0549,-1.0625,-1.0681,-1.0733,-1.0751,-1.0745,-1.076,-1.0743,-1.0751,-1.0749,-1.0752,-1.0741,-1.0741,-1.074,-1.074,0,-1.0015,-1.0041,-1.0086,-1.0139,-1.0176,-1.0221,-1.0268,-1.0287,-1.0356,-1.0389,-1.0439,-1.0474,-1.0543,-1.0594,-1.0653,-1.0691,-1.0727,-1.0735,-1.0738,-1.0723,-1.0701,-1.0713,-1.074,-1.0735,-1.0735,-1.0736,-1.0736,-1.0736,-0.999,-1.0014,-1.0072,-1.012,-1.0161,-1.0204,-1.0232,-1.0279,-1.0322,-1.0382,-1.0415,-1.0464,-1.0521,-1.0604,-1.0641,-1.068,-1.0693,-1.0698,-1.0699,-1.07,-1.0695,-1.0694,-1.0691,-1.0691,-1.0692,-1.0692,-1.0692,0,-0.9971,-1.0011,-1.0053,-1.0117,-1.0154,-1.0184,-1.0237,-1.0266,-1.0309,-1.0359,-1.0402,-1.046,-1.051,-1.0569,-1.0623,-1.0643,-1.0661,-1.0656,-1.0655,-1.0663,-1.0681,-1.0672,-1.064,-1.064,-1.064,-1.064,-1.064,-1.064,-0.9965,-1.0006,-1.0039,-1.0101,-1.0141,-1.0189,-1.0217,-1.0257,-1.0297,-1.0359,-1.04,-1.0438,-1.0492,-1.055,-1.0597,-1.0614,-1.0631,-1.0621,-1.0641,-1.0657,-1.0662,-1.0666,-1.0658,-1.0624,-1.0624,-1.0621,-1.062,-1.062]}]]